Regional Weather Roundup
Issued by NWS

Home | Current Version | Previous Version | Graphics & Text | Print | Product List | Glossary On
Versions: 1 2 3 4 5 6 7 8 9 10 11 12 13 14 15 16 17 18 19 20 21 22 23 24 25 26 27 28 29 30 31 32 33 34 35 36 37 38 39 40 41 42 43 44 45 46 47 48 49 50
764
ASUS44 KJAN 252210
RWRMS

MISSISSIPPI HOURLY WEATHER ROUNDUP
NATIONAL WEATHER SERVICE JACKSON MS
400 PM CST TUE NOV 25 2014

NOTE: "FAIR: INDICATES FEW OR NO CLOUDS BELOW 12,000 FEET WITH NO
SIGNIFICANT WEATHER AND/OR OBSTRUCTIONS TO VISIBILITY.

MSZ001>002-007>008-010>013-018>021-025>028-034>036-252300-
NORTHWEST MISSISSIPPI

CITY           SKY/WX    TMP DP  RH WIND       PRES   REMARKS
CLARKSDALE     FAIR      46  28  49 NW7       30.19S
CLEVELAND      FAIR      48  26  40 CALM      30.18S
GREENWOOD      CLOUDY    48  25  40 NW6       30.17F
GREENVILLE     CLOUDY    50  24  36 NW6       30.17F
GRENADA        FAIR      46  23  39 CALM      30.16S
OLIVE BRANCH   MOCLDY    45  28  53 NW9       30.15F
OXFORD         FAIR      45  23  42 NW8       30.16F
TUNICA         MOCLDY    46  25  42 NW5       30.18S
$$

MSZ003>006-009-014>017-022>024-029>033-037>039-252300-
NORTHEAST MISSISSIPPI

CITY           SKY/WX    TMP DP  RH WIND       PRES   REMARKS
COLUMBUS AFB   CLOUDY    49  29  46 NW10      30.12F
CORINTH        FAIR      48  28  46 NW5       30.13S
GOLDN TRIANGLE MOCLDY    48  30  49 NW7       30.12F
STARKVILLE     FAIR      46  30  53 NW3       30.13S
TUPELO         CLOUDY    48  27  44 NW5       30.14S
$$

MSZ040-058-252300-
CENTRAL MISSISSIPPI

CITY           SKY/WX    TMP DP  RH WIND       PRES   REMARKS
JACKSON INTL   CLOUDY    50  25  37 NW6       30.17R
JACKSON HAWKNS CLOUDY    49  24  37 NW5       30.17R
MERIDIAN KEY   CLOUDY    51  29  42 NW3       30.13R
MERIDIAN NAS   CLOUDY    51  29  42 NW7       30.13R
RAYMOND        FAIR      48  45  87 NW3       30.18R
VICKSBURG      CLOUDY    50  30  46 NW7       30.19S
$$

MSZ059>079-252300-
SOUTH MISSISSIPPI

CITY           SKY/WX    TMP DP  RH WIND       PRES   REMARKS
BROOKHAVEN     FAIR      48  30  49 CALM      30.17S
COLUMBIA       MOCLDY    52  32  46 MISG        N/A
HATTIESBURG    CLOUDY    53  33  46 NW9       30.15R
MCCOMB         CLOUDY    50  28  42 N10       30.17R
NATCHEZ        CLOUDY    50  28  43 NW6       30.19S
PINE BELT      CLOUDY    52  30  43 NW5       30.14S
$$

MSZ080>082-252300-
COASTAL MISSISSIPPI

CITY           SKY/WX    TMP DP  RH WIND       PRES   REMARKS
BAY ST LOUIS   CLOUDY    54  34  47 N7        30.14R
BILOXI         CLOUDY    56  34  44 N8        30.13R
PASCAGOULA     CLOUDY    56  34  43 NW7       30.11S
GULFPORT       CLOUDY    55  34  45 NW10      30.14R
$$



USA.gov is the U.S. government's official web portal to all federal, state and local government web resources and services.